Location: Launay
(47.2429°N, 1.5727°E)
Time: 05:22:58
(UTC+00:00)

USA 234 - Pass Details

Date: 19 May 2025
Orbit: 1097 x 1111 km, 123.0° (Epoch: 11 June)

Event Time Altitude Azimuth Distance (km) Brightness Sun altitude
Rises 22:32:14 0° 57° (ENE) 3,922 6.3 -20.5°
Reaches altitude 10° 22:34:47 10° 52° (NE) 2,965 5.7 -20.7°
Maximum altitude 22:41:03 51° 339° (NNW) 1,365 4.1 -21.0°
Drops below altitude 10° 22:47:20 10° 266° (W) 2,968 5.7 -21.3°
Sets 22:49:53 0° 262° (W) 3,927 6.3 -21.4°
